Location: Cahas Mountain Overlook
(37.0833°N, 80.1000°W)
Time: 03:12:21
(UTC-05:00)

Transit 2A Rocket - All Passes

Search period start: 15 February 2026 00:00
Search period end: 25 February 2026 00:00
Orbit: 582 x 901 km, 66.7° (Epoch: 13 February)

Date Brightness Start Highest point End Pass type
(mag) Time Alt. Az. Time Alt. Az. Time Alt. Az.
15 Feb - 01:23:49 10° N 01:28:41 32° NE 01:33:09 10° ESE night (unlit)
15 Feb - 03:06:26 10° NW 03:10:56 29° WSW 03:15:06 10° SSW night (unlit)
15 Feb - 15:52:43 10° S 15:58:11 39° ESE 16:03:44 10° NE daylight
15 Feb - 17:35:17 10° WSW 17:40:38 33° NW 17:46:03 10° N daylight
16 Feb - 00:38:51 10° N 00:42:41 19° NE 00:46:18 10° E night (unlit)
16 Feb - 02:20:19 10° NW 02:25:33 58° WSW 02:30:18 10° SSE night (unlit)
16 Feb - 15:08:28 10° SSE 15:12:51 22° ESE 15:17:16 10° ENE daylight
16 Feb - 16:48:57 10° SW 16:54:48 56° WNW 17:00:45 10° NNE daylight
16 Feb - 18:37:01 10° NW 18:38:30 11° NW 18:39:59 10° NNW visible
16 Feb - 23:54:47 10° NNE 23:56:30 11° NE 23:58:09 10° ENE night (unlit)
17 Feb - 01:34:36 10° NNW 01:40:00 72° ENE 01:44:51 10° SE night (unlit)
17 Feb - 03:19:51 10° W 03:21:28 11° W 03:23:03 10° WSW night (unlit)
17 Feb - 14:26:13 10° ESE 14:27:39 11° E 14:29:04 10° E daylight
17 Feb - 16:03:11 10° SSW 16:09:08 84° ESE 16:15:11 10° NNE daylight
17 Feb - 17:48:18 10° W 17:52:16 18° NW 17:56:14 10° N daylight
18 Feb - 00:49:13 10° NNW 00:54:14 38° NE 00:58:49 10° ESE night (unlit)
18 Feb - 02:32:12 10° NW 02:36:18 24° WSW 02:40:07 10° SSW night (unlit)
18 Feb - 15:17:58 10° S 15:23:36 47° ESE 15:29:21 10° NE daylight
18 Feb - 17:01:05 10° WSW 17:06:13 29° NW 17:11:22 10° N daylight
19 Feb - 00:04:07 10° N 00:08:16 22° NE 00:12:09 10° E night (unlit)
19 Feb - 01:45:54 10° NW 01:50:58 47° WSW 01:55:33 10° S night (unlit)
19 Feb - 14:33:26 10° SSE 14:38:14 26° ESE 14:43:05 10° NE daylight
19 Feb - 16:14:34 10° SW 16:20:20 48° WNW 16:26:09 10° NNE daylight
19 Feb - 23:19:38 10° NNE 23:22:08 13° NE 23:24:32 10° ENE night (unlit)
20 Feb - 01:00:06 10° NNW 01:05:27 87° ENE 01:10:17 10° SSE night (unlit)
20 Feb - 13:50:11 10° SE 13:52:59 14° ESE 13:55:48 10° ENE daylight
20 Feb - 15:28:38 10° SSW 15:34:37 83° WNW 15:40:40 10° NNE daylight
20 Feb - 17:14:27 10° W 17:17:54 15° NW 17:21:22 10° N daylight
21 Feb - 00:14:36 10° NNW 00:19:45 45° ENE 00:24:24 10° SE night (unlit)
21 Feb - 01:58:02 10° WNW 02:01:37 19° WSW 02:05:00 10° SSW night (unlit)
21 Feb - 14:43:14 10° S 14:49:02 56° ESE 14:54:56 10° NE daylight
21 Feb - 16:26:56 10° WSW 16:31:49 25° NW 16:36:40 10° N daylight
21 Feb - 23:29:24 10° N 23:33:50 25° NE 23:37:57 10° ESE night (unlit)
22 Feb - 01:11:31 10° NW 01:16:20 38° WSW 01:20:44 10° S night (unlit)
22 Feb - 13:58:29 10° SSE 14:03:37 31° ESE 14:08:48 10° NE daylight
22 Feb - 15:40:14 10° SW 15:45:52 41° NW 15:51:31 10° NNE daylight
22 Feb - 22:44:42 10° N 22:47:45 15° NE 22:50:39 10° E night (unlit)
23 Feb - 00:25:35 10° NNW 00:30:53 78° WSW 00:35:38 10° SSE night (unlit)
23 Feb - 13:14:42 10° SE 13:18:19 17° ESE 13:21:57 10° ENE daylight
23 Feb - 14:54:08 10° SW 15:00:06 71° WNW 15:06:07 10° NNE daylight
23 Feb - 16:40:43 10° WNW 16:43:33 13° NW 16:46:21 10° NNW daylight
23 Feb - 23:40:01 10° NNW 23:45:14 54° ENE 23:49:56 10° SE night (unlit)
24 Feb - 01:24:01 10° WNW 01:26:56 15° WSW 01:29:43 10° SW night (unlit)
24 Feb - 14:08:34 10° SSW 14:14:29 67° ESE 14:20:27 10° NNE daylight
24 Feb - 15:52:51 10° W 15:57:23 22° NW 16:01:54 10° N daylight
24 Feb - 22:54:43 10° N 22:59:23 30° NE 23:03:39 10° ESE night (unlit)
